Green Bay, WI

3:32 AM CST on February 08, 2016 (GMT -0600)
Austin Straubel International

Weather History for KGRB - July, 2013

Change the Weather History Date:

Saturday, July 6, 2013

  Actual Average Record
Temperature  
Mean Temperature 76 °F 69 °F  
Max Temperature 88 °F 80 °F 98 °F (1988)
Min Temperature 64 °F 58 °F 40 °F (1965)
Degree Days  
Heating Degree Days 0 1  
Month to date heating degree days 1 6  
Since 1 June heating degree days 73 98  
Since 1 July heating degree days 1 6  
Cooling Degree Days 11 5  
Month to date cooling degree days 36 30  
Year to date cooling degree days 179 131  
Since 1 June cooling degree days 141 113  
Growing Degree Days 26 (Base 50)    
Moisture  
Dew Point 63 °F    
Average Humidity 65    
Maximum Humidity 87    
Minimum Humidity 42    
Precipitation  
Precipitation 0.00 in 0.12 in 1.49 in (1920)
Month to date precipitation 0.01 0.72  
Year to date precipitation 17.60 14.25  
Snow  
Snow 0.00 in 0.00 in 0.00 in ()
Month to date snowfall 0.0 0.0  
Since 1 June snowfall 0.0 0.0  
Since 1 July snowfall 0.0 0.0  
Snow Depth 0.00 in    
Sea Level Pressure  
Sea Level Pressure 29.98 in    
Wind  
Wind Speed 8 mph (SSW)    
Max Wind Speed 15 mph    
Max Gust Speed 21 mph    
Visibility 8 miles    
Events      
T = Trace of Precipitation, MM = Missing Value Source: NWS Daily Summary

Daily Weather History Graph

Daily Weather History Graph

Search for Another Location

Airport or City:

Trip Planner

Search our weather history database for the weather conditions in past years. The results will help you decide how hot, cold, wet, or windy it might be!

Date:

Astronomy

Jul. 06, 2013 Rise Set
Actual Time 5:14 AM CDT 8:39 PM CDT
Civil Twilight 4:38 AM CDT 9:15 PM CDT
Nautical Twilight 3:51 AM CDT 10:02 PM CDT
Astronomical Twilight 2:50 AM CDT 11:02 PM CDT
Moon 4:02 AM CDT (7/6) 7:18 PM CDT (7/6)
Length of Visible Light 16h 36m
Length of Day
15h 24m
Waning Crescent, 2% of the Moon is Illuminated
Jul 6
Waning Crescent
Jul 8
New
Jul 15
First Quarter
Jul 22
Full
Jul 29
Last Quarter

Hourly Weather History & Observations

Time (CDT) Temp. Heat Index Dew Point Humidity Pressure Visibility Wind Dir Wind Speed Gust Speed Precip Events Conditions
12:53 AM 71.1 °F - 61.0 °F 70% 30.00 in 8.0 mi South 5.8 mph - N/A   Clear
1:53 AM 69.1 °F - 61.0 °F 75% 30.01 in 8.0 mi South 5.8 mph - N/A   Clear
2:53 AM 68.0 °F - 61.0 °F 78% 30.01 in 8.0 mi South 5.8 mph - N/A   Clear
3:53 AM 64.9 °F - 60.1 °F 84% 30.00 in 7.0 mi South 3.5 mph - N/A   Clear
4:53 AM 64.0 °F - 60.1 °F 87% 30.01 in 6.0 mi South 9.2 mph - N/A   Clear
5:53 AM 66.0 °F - 61.0 °F 84% 30.01 in 5.0 mi West 3.5 mph - N/A   Haze
6:53 AM 68.0 °F - 62.1 °F 81% 30.01 in 5.0 mi South 5.8 mph - N/A   Haze
7:53 AM 73.0 °F - 64.0 °F 73% 30.01 in 5.0 mi SSW 5.8 mph - N/A   Haze
8:53 AM 77.0 °F - 64.0 °F 64% 30.01 in 7.0 mi SSW 10.4 mph - N/A   Clear
9:53 AM 80.1 °F 81.9 °F 64.9 °F 60% 30.01 in 7.0 mi SSW 9.2 mph - N/A   Clear
10:53 AM 82.0 °F 83.4 °F 64.0 °F 54% 30.01 in 8.0 mi SSW 9.2 mph 17.3 mph N/A   Clear
11:53 AM 84.0 °F 85.4 °F 64.0 °F 51% 30.00 in 9.0 mi SW 10.4 mph - N/A   Clear
12:53 PM 84.9 °F 85.9 °F 63.0 °F 48% 29.99 in 9.0 mi SSW 13.8 mph 21.9 mph N/A   Clear
1:53 PM 86.0 °F 86.8 °F 63.0 °F 46% 29.98 in 9.0 mi SW 12.7 mph - N/A   Clear
2:53 PM 87.1 °F 87.8 °F 63.0 °F 44% 29.97 in 10.0 mi SW 9.2 mph - N/A   Partly Cloudy
3:53 PM 87.1 °F 87.5 °F 62.1 °F 43% 29.97 in 10.0 mi South 10.4 mph - N/A   Clear
4:53 PM 87.1 °F 87.5 °F 62.1 °F 43% 29.95 in 10.0 mi South 11.5 mph - N/A   Partly Cloudy
5:53 PM 86.0 °F 86.1 °F 61.0 °F 43% 29.94 in 9.0 mi SSW 9.2 mph - N/A   Clear
6:53 PM 84.9 °F 85.4 °F 62.1 °F 46% 29.93 in 9.0 mi SSW 9.2 mph - N/A   Clear
7:53 PM 82.0 °F 83.0 °F 62.1 °F 51% 29.93 in 10.0 mi South 8.1 mph - N/A   Clear
8:53 PM 79.0 °F - 64.0 °F 60% 29.94 in 9.0 mi South 9.2 mph - N/A   Clear
9:53 PM 75.0 °F - 64.0 °F 69% 29.96 in 10.0 mi South 5.8 mph - N/A   Clear
10:53 PM 73.9 °F - 64.0 °F 71% 29.96 in 8.0 mi South 6.9 mph - N/A   Clear
11:53 PM 72.0 °F - 64.0 °F 76% 29.96 in 8.0 mi South 5.8 mph - N/A   Clear